Location: Clermont
(50.2608°N, 4.3172°E)
Time: 22:47:01
(UTC+00:00)

Geosat - Pass Details

Date: 13 August 2020
Orbit: 763 x 765 km, 108.0° (Epoch: 23 September)

Event Time Altitude Azimuth Distance (km) Brightness Sun altitude
Exits shadow 22:33:12 63° 148° (SSE) 857 3.9 -23.4°
Maximum altitude 22:34:04 90° 41° (NE) 772 3.9 -23.5°
Drops below altitude 10° 22:39:08 10° 330° (NNW) 2,313 7.5 -23.7°
Sets 22:41:25 0° 331° (NNW) 3,243 8.6 -23.8°
